[[{"header":{"parameterUnit":"m.s-1","parameterCategory":1,"la1":30.2991,"la2":30.254,"lo1":-89.0895,"lo2":-89.0444,"dy":0.0017,"dx":0.0017,"nx":28,"ny":28,"refTime":"2024-07-20T03:00:00:Z","depth":0,"parameterNumber":2,"parameterNumberName":"U-component_of_WINDS"},"data":[0,0,0,0,0,0,0,0,0,0,0,0,0,0,0,0,0,0,0,0,0,0,0,0,0,0,0,0,0,0,0,0,0,0,0,0,0,0,0,0,0,0,0,0,0,0,0,0,0,0,0,0,0,0,0,0,0,0,2.2905,2.2905,0,2.2874,2.2874,2.2873,2.2821,2.282,2.2819,2.2818,2.2788,2.2788,2.2788,0,0,0,0,0,0,0,0,0,0,0,0,0,2.2922,2.2922,2.2905,2.2905,2.2904,2.2874,2.2874,2.2873,2.2821,2.282,2.2818,2.2817,2.2788,2.2788,2.2788,0,0,0,0,0,0,0,0,0,0,0,0,0,2.2905,2.2922,2.2905,2.2875,2.2871,2.2874,2.2873,2.2873,2.2821,2.282,2.2818,2.2817,2.2788,2.2788,2.2788,2.2818,0,0,2.2788,2.2789,0,0,0,0,0,0,0,0,2.2906,2.2904,2.2879,2.2877,2.2873,2.285,2.2868,2.2855,2.2822,2.284,2.2818,2.2816,2.281,2.2808,2.2805,2.2817,2.2816,2.2788,2.2789,2.2789,2.2789,0,0,0,0,0,0,0,2.2907,2.2905,2.2893,2.2879,2.2875,2.2863,2.2859,2.2865,2.2834,2.2839,2.2835,2.2832,2.2808,2.2805,2.2804,2.2815,2.2788,2.2789,2.2789,2.2789,2.2852,2.2853,0,0,0,0,0,0,2.2913,2.2907,2.2894,2.2892,2.2886,2.2864,2.2859,2.2859,2.2833,2.2828,2.2833,2.2829,2.2806,2.2804,2.2803,2.2838,2.2789,2.2789,2.2789,2.285,2.2852,2.2854,0,0,0,0,0,0,2.2913,2.2912,2.2895,2.2898,2.2895,2.2865,2.2865,2.2859,2.2856,2.2829,2.2823,2.2836,2.2805,2.2803,2.2815,2.2836,2.2789,2.2789,2.2848,2.2851,2.2853,2.2907,0,0,0,0,0,0,2.2914,2.2912,2.2923,2.2899,2.2895,2.2907,2.2866,2.2859,2.2857,2.2852,2.2831,2.2826,2.2803,2.2815,2.2815,2.2835,2.2789,2.2846,2.2849,2.2852,2.2903,2.2911,2.2917,0,0,0,0,0,2.2915,2.294,2.2924,2.2923,2.2908,2.2908,2.2906,2.2879,2.2858,2.2869,2.2852,2.2826,2.2834,2.2817,2.2817,2.2837,2.2845,2.2848,2.2852,2.29,2.2909,2.2917,0,0,0,0,0,0,2.2967,2.2936,2.2918,2.2936,2.2925,2.2899,2.2912,2.289,2.2885,2.2881,2.2848,2.2844,2.2861,2.285,2.2832,2.2866,2.2835,2.2839,2.2872,2.2881,2.2888,2.289,2.2789,0,0,0,0,0,2.2981,2.2984,2.2956,2.2975,2.297,2.2943,2.2942,2.2922,2.291,2.2905,2.2888,2.2878,2.2878,2.2879,2.2877,2.2901,2.2897,2.2915,2.2923,2.2929,2.2932,2.2945,2.2954,2.2865,2.2865,2.2865,0,0,2.301,2.2993,2.2996,2.2985,2.2974,2.2978,2.2939,2.2945,2.2948,2.2906,2.2917,2.2904,2.2891,2.291,2.2917,2.2901,2.2956,2.2933,2.2938,2.2938,2.295,2.2958,2.2966,2.2868,2.2867,2.2867,0,0,2.3064,2.3051,2.3065,2.3055,2.304,2.3021,2.3025,2.3003,2.2993,2.3003,2.2972,2.2975,2.2976,2.2968,2.2963,2.3016,2.2992,2.3016,2.3053,2.3067,2.3074,2.308,2.3099,2.3106,2.302,2.302,2.302,0,2.3101,2.3105,2.3076,2.3083,2.308,2.3042,2.3057,2.3049,2.3034,2.3033,2.3015,2.3015,2.3003,2.302,2.3033,2.3031,2.3035,2.3018,2.3075,2.3081,2.3086,2.3104,2.3111,2.3023,2.3023,2.3022,2.3022,0,2.3153,2.3156,2.317,2.3156,2.3154,2.3166,2.3138,2.314,2.3121,2.3104,2.3116,2.31,2.3095,2.3098,2.3079,2.3112,2.3103,2.3081,2.305,2.3098,2.3114,2.3121,2.3027,2.3026,2.3025,2.3025,0,0,2.3239,2.3209,2.3214,2.3208,2.3188,2.3191,2.3201,2.3196,2.3198,2.319,2.3198,2.32,2.3179,2.3175,2.3155,2.3166,2.3209,2.3142,2.3141,2.3156,2.3246,2.3264,2.3272,2.3194,2.3195,2.3196,2.3248,0,2.3289,2.3304,2.3278,2.33,2.3304,2.3268,2.3277,2.3267,2.3252,2.3254,2.3237,2.3239,2.3211,2.3209,2.3218,2.3202,2.3227,2.3198,2.3202,2.3203,2.3207,2.3281,2.3299,2.3348,2.3254,2.3255,2.3256,0,2.335,2.3344,2.3366,2.3346,2.3346,2.3355,2.3348,2.335,2.3338,2.3326,2.3322,2.3298,2.3308,2.3278,2.3291,2.3272,2.3272,2.3265,2.3266,2.3266,2.3232,2.3283,2.3363,2.3371,2.3266,2.3265,2.3264,0,2.3412,2.3409,2.3422,2.3418,2.3394,2.3401,2.3392,2.3378,2.3377,2.3372,2.3371,2.3367,2.3365,2.3363,2.3339,2.3319,2.3356,2.3324,2.3348,2.3348,2.3357,2.3357,2.3439,2.3357,2.3357,2.3357,2.3356,0,2.3471,2.3486,2.345,2.3458,2.3474,2.3444,2.3461,2.3448,2.3437,2.3442,2.3412,2.3418,2.3386,2.3389,2.3371,2.3385,2.3384,2.3376,2.3371,2.3379,2.338,2.3379,2.3375,2.3358,2.3358,2.3358,2.3357,0,2.3543,2.3519,2.3531,2.3508,2.3502,2.3515,2.3496,2.3503,2.3486,2.3494,2.3494,2.3469,2.3471,2.3447,2.3444,2.3432,2.3455,2.3444,2.3459,2.3456,2.3482,2.348,2.3566,2.3577,2.3487,2.3488,2.3489,0,2.3582,2.3593,2.3571,2.3573,2.3565,2.3567,2.3566,2.3537,2.3537,2.3525,2.3534,2.3533,2.3531,2.3536,2.3518,2.3516,2.3505,2.3536,2.3505,2.3513,2.3506,2.3506,2.3508,2.3542,2.3543,2.3544,2.3545,0,2.3655,2.3643,2.3642,2.3637,2.3637,2.3631,2.3624,2.3627,2.3597,2.3598,2.36,2.3598,2.3596,2.3596,2.3591,2.3582,2.3559,2.3555,2.356,2.3569,2.3578,2.3574,2.3478,2.3553,2.3552,2.3552,2.3551,2.3551,2.3713,2.3721,2.3707,2.3707,2.3699,2.3693,2.3699,2.3683,2.3684,2.3679,2.3662,2.3667,2.3656,2.3646,2.364,2.3643,2.3629,2.3637,2.3639,2.3641,2.3646,2.3577,2.3642,2.3642,2.3642,2.3642,2.3641,0,2.3785,2.3774,2.3775,2.3766,2.3766,2.3744,2.3735,2.3737,2.3741,2.3732,2.3731,2.3733,2.3734,2.3716,2.3714,2.372,2.371,2.3721,2.372,2.3719,2.3659,2.3655,2.373,2.373,2.373,2.373,2.373,2.373,2.3822,2.3835,2.3822,2.3831,2.382,2.3824,2.3821,2.3816,2.3809,2.3813,2.3813,2.3801,2.3788,2.3785,2.3785,2.378,2.3781,2.3796,2.3787,2.3732,2.3723,2.3715,2.3711,2.3796,2.3796,2.3847,2.3847,2.3848]},{"header":{"parameterUnit":"m.s-1","parameterCategory":1,"la1":30.2991,"la2":30.254,"lo1":-89.0895,"lo2":-89.0444,"dy":0.0017,"dx":0.0017,"nx":28,"ny":28,"refTime":"2024-07-20T03:00:00:Z","depth":0,"parameterNumber":3,"parameterNumberName":"V-component_of_WINDS"},"data":[0,0,0,0,0,0,0,0,0,0,0,0,0,0,0,0,0,0,0,0,0,0,0,0,0,0,0,0,0,0,0,0,0,0,0,0,0,0,0,0,0,0,0,0,0,0,0,0,0,0,0,0,0,0,0,0,0,0,-0.2756,-0.2757,0,-0.2825,-0.2826,-0.2827,-0.2847,-0.2846,-0.2846,-0.2846,-0.2918,-0.292,-0.2923,0,0,0,0,0,0,0,0,0,0,0,0,0,-0.2643,-0.2645,-0.2756,-0.2757,-0.2758,-0.2825,-0.2826,-0.2827,-0.2847,-0.2846,-0.2846,-0.2845,-0.2918,-0.292,-0.2923,0,0,0,0,0,0,0,0,0,0,0,0,0,-0.27,-0.2645,-0.2756,-0.2776,-0.2778,-0.2825,-0.2826,-0.2827,-0.2847,-0.2846,-0.2846,-0.2845,-0.2917,-0.292,-0.2923,-0.2956,0,0,-0.2934,-0.2935,0,0,0,0,0,0,0,0,-0.2696,-0.2704,-0.2772,-0.2774,-0.2777,-0.2827,-0.2813,-0.287,-0.2847,-0.2821,-0.2846,-0.2845,-0.2888,-0.2894,-0.2908,-0.2959,-0.2962,-0.2934,-0.2936,-0.2938,-0.2939,0,0,0,0,0,0,0,-0.2693,-0.2701,-0.2783,-0.2773,-0.2776,-0.2782,-0.2789,-0.2824,-0.2857,-0.2823,-0.2825,-0.2832,-0.289,-0.2905,-0.291,-0.2963,-0.2934,-0.2937,-0.2939,-0.294,-0.3045,-0.3046,0,0,0,0,0,0,-0.2685,-0.2698,-0.2781,-0.2785,-0.2735,-0.2784,-0.2792,-0.2811,-0.2857,-0.2863,-0.2833,-0.2833,-0.2899,-0.2906,-0.2913,-0.2955,-0.2938,-0.2941,-0.2943,-0.3045,-0.3045,-0.3046,0,0,0,0,0,0,-0.2682,-0.2692,-0.2778,-0.2742,-0.2753,-0.2787,-0.2808,-0.2813,-0.2828,-0.2864,-0.287,-0.2842,-0.2899,-0.2908,-0.2945,-0.2958,-0.2942,-0.2945,-0.3044,-0.3045,-0.3046,-0.3038,0,0,0,0,0,0,-0.2679,-0.2691,-0.2703,-0.2742,-0.2755,-0.2809,-0.2808,-0.2815,-0.2834,-0.2835,-0.2875,-0.2881,-0.2899,-0.294,-0.2948,-0.2962,-0.2948,-0.3043,-0.3044,-0.3046,-0.3038,-0.3039,-0.304,0,0,0,0,0,-0.2675,-0.2699,-0.2704,-0.2714,-0.2771,-0.2809,-0.2817,-0.2838,-0.2835,-0.2848,-0.2871,-0.2879,-0.2954,-0.2943,-0.2953,-0.2968,-0.3042,-0.3044,-0.3045,-0.3037,-0.3039,-0.304,0,0,0,0,0,0,-0.2661,-0.2704,-0.271,-0.2747,-0.2774,-0.2813,-0.283,-0.2839,-0.2868,-0.2868,-0.2893,-0.2902,-0.2937,-0.2956,-0.2943,-0.3002,-0.2999,-0.3002,-0.2989,-0.2991,-0.2992,-0.2987,-0.2951,0,0,0,0,0,-0.2662,-0.2689,-0.2725,-0.2754,-0.2768,-0.2796,-0.2814,-0.2827,-0.2857,-0.2869,-0.2894,-0.2923,-0.2953,-0.2973,-0.3003,-0.304,-0.305,-0.3055,-0.3056,-0.3057,-0.306,-0.3083,-0.3086,-0.3052,-0.3052,-0.3052,0,0,-0.2665,-0.2692,-0.2707,-0.2752,-0.2775,-0.2803,-0.2806,-0.2835,-0.2857,-0.2873,-0.291,-0.293,-0.2964,-0.3001,-0.3019,-0.3018,-0.3072,-0.3059,-0.306,-0.3063,-0.3085,-0.3088,-0.3091,-0.3053,-0.3053,-0.3052,0,0,-0.2685,-0.2707,-0.2734,-0.2757,-0.2791,-0.281,-0.2816,-0.2854,-0.2867,-0.2904,-0.2918,-0.2943,-0.2995,-0.3019,-0.3037,-0.3066,-0.3076,-0.3075,-0.3082,-0.3104,-0.3106,-0.3109,-0.3121,-0.3124,-0.3078,-0.3078,-0.3078,0,-0.2684,-0.2727,-0.2747,-0.2776,-0.2796,-0.2812,-0.284,-0.2861,-0.2903,-0.2917,-0.2915,-0.298,-0.3004,-0.3048,-0.3055,-0.3069,-0.3078,-0.3071,-0.3104,-0.3107,-0.311,-0.3121,-0.3125,-0.3078,-0.3078,-0.3078,-0.3078,0,-0.2725,-0.2754,-0.2772,-0.2812,-0.2834,-0.2862,-0.2888,-0.2907,-0.2919,-0.2938,-0.2976,-0.3005,-0.3041,-0.3052,-0.3064,-0.3098,-0.3097,-0.3099,-0.3096,-0.3112,-0.3124,-0.3128,-0.3078,-0.3078,-0.3078,-0.3078,0,0,-0.2739,-0.279,-0.2796,-0.2815,-0.2854,-0.2877,-0.2907,-0.2941,-0.2958,-0.2987,-0.3013,-0.3056,-0.3058,-0.308,-0.3094,-0.3113,-0.3135,-0.3113,-0.3114,-0.3117,-0.3176,-0.3175,-0.3179,-0.3141,-0.3142,-0.3142,-0.3173,0,-0.2765,-0.2818,-0.2837,-0.2881,-0.2908,-0.2923,-0.2949,-0.2976,-0.2995,-0.3021,-0.3042,-0.3073,-0.3073,-0.3086,-0.3105,-0.3128,-0.3147,-0.3126,-0.3166,-0.3168,-0.3159,-0.3185,-0.3184,-0.3212,-0.3178,-0.3179,-0.3179,0,-0.2802,-0.2831,-0.2877,-0.2913,-0.2926,-0.2948,-0.2982,-0.3007,-0.3038,-0.3051,-0.3074,-0.3087,-0.312,-0.3113,-0.3159,-0.3144,-0.3161,-0.3175,-0.3177,-0.3183,-0.3175,-0.3193,-0.3221,-0.3226,-0.3186,-0.3185,-0.3185,0,-0.281,-0.286,-0.2894,-0.291,-0.2952,-0.2968,-0.2986,-0.3017,-0.3036,-0.3066,-0.308,-0.3112,-0.3131,-0.3157,-0.3179,-0.3172,-0.3222,-0.3218,-0.3235,-0.3234,-0.3246,-0.3245,-0.3279,-0.3254,-0.3254,-0.3254,-0.3254,0,-0.2837,-0.2865,-0.2898,-0.2919,-0.2952,-0.2973,-0.3005,-0.3024,-0.3051,-0.3077,-0.3092,-0.3116,-0.3143,-0.3171,-0.3188,-0.3224,-0.3231,-0.3243,-0.3248,-0.3243,-0.3241,-0.3256,-0.3255,-0.3255,-0.3255,-0.3255,-0.3255,0,-0.2852,-0.2874,-0.2913,-0.295,-0.296,-0.2982,-0.3014,-0.3035,-0.3054,-0.3087,-0.3096,-0.3126,-0.3159,-0.3184,-0.3227,-0.3239,-0.3277,-0.3281,-0.3267,-0.3269,-0.3285,-0.3284,-0.3331,-0.3338,-0.3307,-0.3307,-0.3308,0,-0.2869,-0.2891,-0.2929,-0.2948,-0.2966,-0.2995,-0.3015,-0.3038,-0.3058,-0.3095,-0.3113,-0.3147,-0.3176,-0.3229,-0.3255,-0.3289,-0.3294,-0.3308,-0.33,-0.3294,-0.3296,-0.3295,-0.3298,-0.331,-0.331,-0.3311,-0.3311,0,-0.2897,-0.2907,-0.2935,-0.2968,-0.2992,-0.3019,-0.3046,-0.306,-0.3087,-0.311,-0.3144,-0.3166,-0.321,-0.3245,-0.3281,-0.3301,-0.3311,-0.3313,-0.3319,-0.3315,-0.3306,-0.3313,-0.3272,-0.3312,-0.3312,-0.3312,-0.3312,-0.3312,-0.2914,-0.2934,-0.2965,-0.2997,-0.3019,-0.3044,-0.3066,-0.3088,-0.3117,-0.3154,-0.3165,-0.3201,-0.3232,-0.3282,-0.3302,-0.3331,-0.333,-0.3338,-0.3341,-0.3343,-0.3343,-0.33,-0.3337,-0.3337,-0.3337,-0.3337,-0.3337,0,-0.2944,-0.2964,-0.2993,-0.303,-0.3055,-0.3061,-0.3092,-0.3112,-0.3143,-0.3171,-0.3199,-0.3239,-0.3272,-0.3301,-0.3336,-0.3353,-0.3359,-0.3362,-0.3362,-0.3366,-0.3341,-0.3333,-0.3357,-0.3357,-0.3357,-0.3357,-0.3357,-0.3357,-0.2963,-0.2998,-0.3012,-0.3059,-0.3079,-0.3114,-0.3131,-0.3154,-0.3177,-0.322,-0.3248,-0.3266,-0.3294,-0.3331,-0.3363,-0.337,-0.3383,-0.3385,-0.3394,-0.337,-0.3368,-0.3366,-0.3359,-0.3387,-0.3387,-0.3417,-0.3418,-0.3418]}]]